Time,TemperatureF,DewpointF,PressureIn,WindDirection,WindDirectionDegrees,WindSpeedMPH,WindSpeedGustMPH,Humidity,HourlyPrecipIn,Conditions,Clouds,dailyrainin,SoftwareType,DateUTC
2013-01-29 00:01:00,56.0,54.0,-100.00,SSE,150,9.0,13.0,95,0.00,,,-99.99,,2013-01-29 06:01:00,
2013-01-29 00:11:00,56.0,54.0,-100.00,SE,145,7.0,14.0,95,0.00,,,-99.99,,2013-01-29 06:11:00,
2013-01-29 00:21:00,56.0,54.0,-100.00,SSE,150,8.0,12.0,95,0.00,,,-99.99,,2013-01-29 06:21:00,
2013-01-29 00:32:00,55.0,54.0,-100.00,SSE,150,6.0,11.0,95,0.00,,,-99.99,,2013-01-29 06:32:00,
2013-01-29 00:41:00,55.0,54.0,-100.00,SE,145,6.0,11.0,95,0.00,,,-99.99,,2013-01-29 06:41:00,
2013-01-29 00:52:00,55.0,54.0,-100.00,SE,135,7.0,10.0,95,0.00,,,-99.99,,2013-01-29 06:52:00,
2013-01-29 01:01:00,55.0,54.0,-100.00,SE,135,7.0,10.0,95,0.00,,,-99.99,,2013-01-29 07:01:00,
2013-01-29 01:11:00,55.0,54.0,-100.00,SE,145,7.0,11.0,95,0.00,,,-99.99,,2013-01-29 07:11:00,
2013-01-29 01:21:00,55.0,54.0,-100.00,SE,140,7.0,10.0,95,0.00,,,-99.99,,2013-01-29 07:21:00,
2013-01-29 01:31:00,55.0,54.0,-100.00,SE,140,6.0,9.0,95,0.00,,,-99.99,,2013-01-29 07:31:00,
2013-01-29 01:41:00,55.0,53.0,-100.00,SE,145,6.0,9.0,95,0.00,,,-99.99,,2013-01-29 07:41:00,
2013-01-29 01:52:00,55.0,54.0,-100.00,SE,135,7.0,9.0,95,0.00,,,-99.99,,2013-01-29 07:52:00,
2013-01-29 02:02:00,55.0,54.0,-100.00,SE,135,7.0,9.0,95,0.00,,,-99.99,,2013-01-29 08:02:00,
2013-01-29 02:11:00,55.0,54.0,-100.00,SE,135,7.0,10.0,95,0.00,,,-99.99,,2013-01-29 08:11:00,
2013-01-29 02:21:00,55.0,54.0,-100.00,SE,135,7.0,11.0,95,0.00,,,-99.99,,2013-01-29 08:21:00,
2013-01-29 02:31:00,55.0,54.0,-100.00,SE,140,7.0,9.0,95,0.00,,,-99.99,,2013-01-29 08:31:00,
2013-01-29 02:41:00,55.0,54.0,-100.00,SE,140,7.0,12.0,95,0.00,,,-99.99,,2013-01-29 08:41:00,
2013-01-29 02:52:00,56.0,55.0,-100.00,SE,140,7.0,12.0,95,0.00,,,-99.99,,2013-01-29 08:52:00,
2013-01-29 03:01:00,56.0,55.0,-100.00,SE,140,7.0,12.0,95,0.00,,,-99.99,,2013-01-29 09:01:00,
2013-01-29 03:11:00,57.0,55.0,-100.00,SE,140,9.0,12.0,95,0.00,,,-99.99,,2013-01-29 09:11:00,
2013-01-29 03:21:00,57.0,56.0,-100.00,SE,145,7.0,12.0,95,0.00,,,-99.99,,2013-01-29 09:21:00,
2013-01-29 03:31:00,57.0,56.0,-100.00,SE,140,9.0,11.0,95,0.00,,,-99.99,,2013-01-29 09:31:00,
2013-01-29 03:42:00,58.0,56.0,-100.00,SE,145,7.0,11.0,95,0.00,,,-99.99,,2013-01-29 09:42:00,
2013-01-29 03:51:00,59.0,57.0,-100.00,SSE,165,11.0,16.0,95,0.03,,,-99.99,,2013-01-29 09:51:00,
2013-01-29 04:01:00,59.0,57.0,-100.00,SSE,165,11.0,16.0,95,0.03,,,-99.99,,2013-01-29 10:01:00,
2013-01-29 04:11:00,60.0,58.0,-100.00,WSW,250,13.0,35.0,94,0.00,,,-99.99,,2013-01-29 10:11:00,
2013-01-29 04:21:00,61.0,59.0,-100.00,SW,220,6.0,21.0,94,0.01,,,-99.99,,2013-01-29 10:21:00,
2013-01-29 04:32:00,60.0,58.0,-100.00,WSW,250,9.0,13.0,92,0.00,,,-99.99,,2013-01-29 10:32:00,
2013-01-29 04:41:00,59.0,58.0,-100.00,SSE,150,11.0,27.0,94,0.01,,,-99.99,,2013-01-29 10:41:00,
2013-01-29 04:51:00,61.0,59.0,-100.00,South,175,11.0,22.0,94,0.00,,,-99.99,,2013-01-29 10:51:00,
2013-01-29 05:01:00,61.0,59.0,-100.00,South,175,11.0,22.0,94,0.00,,,-99.99,,2013-01-29 11:01:00,
2013-01-29 05:11:00,60.0,59.0,-100.00,South,175,9.0,17.0,94,0.00,,,-99.99,,2013-01-29 11:11:00,
2013-01-29 05:21:00,60.0,59.0,-100.00,SSE,165,7.0,14.0,94,0.00,,,-99.99,,2013-01-29 11:21:00,
2013-01-29 05:32:00,60.0,58.0,-100.00,SSE,160,8.0,12.0,94,0.00,,,-99.99,,2013-01-29 11:32:00,
2013-01-29 05:42:00,60.0,58.0,-100.00,SSE,155,7.0,10.0,93,0.00,,,-99.99,,2013-01-29 11:42:00,
2013-01-29 05:52:00,59.0,57.0,-100.00,SSE,150,8.0,11.0,93,0.00,,,-99.99,,2013-01-29 11:52:00,
2013-01-29 06:02:00,59.0,57.0,-100.00,SSE,150,8.0,11.0,93,0.00,,,-99.99,,2013-01-29 12:02:00,
2013-01-29 06:12:00,59.0,58.0,-100.00,SSE,150,7.0,11.0,93,0.00,,,-99.99,,2013-01-29 12:12:00,
2013-01-29 06:22:00,59.0,57.0,-100.00,SSE,165,8.0,11.0,93,0.00,,,-99.99,,2013-01-29 12:22:00,
2013-01-29 06:32:00,60.0,58.0,-100.00,SSE,165,7.0,16.0,93,0.00,,,-99.99,,2013-01-29 12:32:00,
2013-01-29 06:42:00,60.0,57.0,-100.00,SSW,195,6.0,12.0,91,0.00,,,-99.99,,2013-01-29 12:42:00,
2013-01-29 06:52:00,60.0,57.0,-100.00,SSE,165,6.0,21.0,89,0.00,,,-99.99,,2013-01-29 12:52:00,
2013-01-29 07:02:00,60.0,57.0,-100.00,SSE,165,6.0,21.0,89,0.00,,,-99.99,,2013-01-29 13:02:00,
2013-01-29 07:11:00,60.0,54.0,-100.00,SSW,200,14.0,19.0,81,0.00,,,-99.99,,2013-01-29 13:11:00,
2013-01-29 07:22:00,61.0,53.0,-100.00,SW,215,16.0,23.0,74,0.00,,,-99.99,,2013-01-29 13:22:00,
2013-01-29 07:32:00,61.0,53.0,-100.00,SW,215,9.0,23.0,74,0.00,,,-99.99,,2013-01-29 13:32:00,
2013-01-29 07:42:00,60.0,53.0,-100.00,SW,225,4.0,7.0,79,0.00,,,-99.99,,2013-01-29 13:42:00,
2013-01-29 07:52:00,59.0,54.0,-100.00,WSW,245,4.0,6.0,82,0.00,,,-99.99,,2013-01-29 13:52:00,
2013-01-29 08:02:00,59.0,54.0,-100.00,WSW,245,4.0,6.0,82,0.00,,,-99.99,,2013-01-29 14:02:00,
2013-01-29 08:12:00,59.0,54.0,-100.00,SSW,200,4.0,6.0,84,0.00,,,-99.99,,2013-01-29 14:12:00,
2013-01-29 08:21:00,59.0,54.0,-100.00,West,270,2.0,6.0,84,0.00,,,-99.99,,2013-01-29 14:21:00,
2013-01-29 08:33:00,57.0,53.0,-100.00,NW,315,11.0,14.0,85,0.00,,,-99.99,,2013-01-29 14:33:00,
2013-01-29 08:43:00,53.0,50.0,-100.00,NW,310,10.0,17.0,89,0.00,,,-99.99,,2013-01-29 14:43:00,
2013-01-29 08:52:00,51.0,49.0,-100.00,NW,310,10.0,12.0,91,0.00,,,-99.99,,2013-01-29 14:52:00,
2013-01-29 09:02:00,51.0,49.0,-100.00,NW,310,10.0,12.0,91,0.00,,,-99.99,,2013-01-29 15:02:00,
2013-01-29 09:12:00,50.0,48.0,-100.00,NW,305,11.0,12.0,92,0.00,,,-99.99,,2013-01-29 15:12:00,
2013-01-29 09:22:00,50.0,48.0,-100.00,NW,305,12.0,16.0,92,0.00,,,-99.99,,2013-01-29 15:22:00,
2013-01-29 09:33:00,49.0,47.0,-100.00,NW,310,15.0,19.0,93,0.00,,,-99.99,,2013-01-29 15:33:00,
2013-01-29 09:42:00,47.0,45.0,-100.00,NW,310,12.0,21.0,93,0.00,,,-99.99,,2013-01-29 15:42:00,
2013-01-29 09:52:00,45.0,44.0,-100.00,NW,305,12.0,19.0,93,0.00,,,-99.99,,2013-01-29 15:52:00,
2013-01-29 10:02:00,45.0,44.0,-100.00,NW,305,12.0,19.0,93,0.00,,,-99.99,,2013-01-29 16:02:00,
2013-01-29 10:12:00,45.0,43.0,-100.00,NW,305,14.0,17.0,93,0.00,,,-99.99,,2013-01-29 16:12:00,
2013-01-29 10:22:00,45.0,43.0,-100.00,NW,315,10.0,17.0,92,0.00,,,-99.99,,2013-01-29 16:22:00,
2013-01-29 10:32:00,44.0,42.0,-100.00,NW,305,7.0,12.0,92,0.00,,,-99.99,,2013-01-29 16:32:00,
2013-01-29 10:42:00,44.0,42.0,-100.00,NW,305,9.0,11.0,92,0.01,,,-99.99,,2013-01-29 16:42:00,
2013-01-29 10:52:00,43.0,41.0,-100.00,NW,315,13.0,17.0,92,0.10,,,-99.99,,2013-01-29 16:52:00,
2013-01-29 11:03:00,43.0,41.0,-100.00,NW,315,13.0,17.0,92,0.10,,,-99.99,,2013-01-29 17:03:00,
2013-01-29 11:12:00,43.0,41.0,-100.00,WNW,300,9.0,16.0,93,0.10,,,-99.99,,2013-01-29 17:12:00,
2013-01-29 11:22:00,43.0,41.0,-100.00,WNW,295,7.0,13.0,94,0.13,,,-99.99,,2013-01-29 17:22:00,
2013-01-29 11:32:00,43.0,41.0,-100.00,West,270,2.0,7.0,94,0.06,,,-99.99,,2013-01-29 17:32:00,
2013-01-29 11:42:00,42.0,41.0,-100.00,WNW,300,6.0,7.0,94,0.14,,,-99.99,,2013-01-29 17:42:00,
2013-01-29 11:52:00,42.0,41.0,-100.00,NW,315,7.0,9.0,94,0.11,,,-99.99,,2013-01-29 17:52:00,
2013-01-29 12:03:00,42.0,41.0,-100.00,NW,315,7.0,9.0,94,0.11,,,-99.99,,2013-01-29 18:03:00,
2013-01-29 12:12:00,42.0,41.0,-100.00,NW,305,10.0,13.0,95,0.08,,,-99.99,,2013-01-29 18:12:00,
2013-01-29 12:22:00,41.0,40.0,-100.00,NW,310,10.0,16.0,95,0.10,,,-99.99,,2013-01-29 18:22:00,
2013-01-29 12:33:00,41.0,40.0,-100.00,NW,310,9.0,16.0,95,0.08,,,-99.99,,2013-01-29 18:33:00,
2013-01-29 12:42:00,41.0,40.0,-100.00,NW,310,9.0,13.0,95,0.13,,,-99.99,,2013-01-29 18:42:00,
2013-01-29 12:51:00,41.0,39.0,-100.00,NNW,330,7.0,11.0,95,0.10,,,-99.99,,2013-01-29 18:51:00,
2013-01-29 13:02:00,41.0,39.0,-100.00,NNW,330,7.0,11.0,95,0.10,,,-99.99,,2013-01-29 19:02:00,
2013-01-29 13:12:00,40.0,39.0,-100.00,NW,325,4.0,8.0,95,0.08,,,-99.99,,2013-01-29 19:12:00,
2013-01-29 13:22:00,40.0,39.0,-100.00,North,355,7.0,9.0,95,0.03,,,-99.99,,2013-01-29 19:22:00,
2013-01-29 13:32:00,40.0,39.0,-100.00,North,0,3.0,7.0,95,0.00,,,-99.99,,2013-01-29 19:32:00,
2013-01-29 13:42:00,40.0,39.0,-100.00,NW,325,4.0,6.0,95,0.00,,,-99.99,,2013-01-29 19:42:00,
2013-01-29 13:52:00,40.0,39.0,-100.00,NW,315,6.0,11.0,95,0.01,,,-99.99,,2013-01-29 19:52:00,
2013-01-29 14:02:00,40.0,39.0,-100.00,NW,315,6.0,11.0,95,0.01,,,-99.99,,2013-01-29 20:02:00,
2013-01-29 14:12:00,40.0,39.0,-100.00,NW,310,7.0,8.0,95,0.01,,,-99.99,,2013-01-29 20:12:00,
2013-01-29 14:22:00,40.0,38.0,-100.00,NW,315,6.0,9.0,95,0.03,,,-99.99,,2013-01-29 20:22:00,
2013-01-29 14:33:00,39.0,38.0,-100.00,NW,320,5.0,11.0,95,0.01,,,-99.99,,2013-01-29 20:33:00,
2013-01-29 14:42:00,39.0,38.0,-100.00,NNW,345,8.0,11.0,95,0.00,,,-99.99,,2013-01-29 20:42:00,
2013-01-29 14:53:00,39.0,38.0,-100.00,NW,305,7.0,9.0,95,0.01,,,-99.99,,2013-01-29 20:53:00,
2013-01-29 15:03:00,39.0,38.0,-100.00,NW,305,7.0,9.0,95,0.01,,,-99.99,,2013-01-29 21:03:00,
2013-01-29 15:12:00,39.0,38.0,-100.00,NNW,340,6.0,10.0,95,0.03,,,-99.99,,2013-01-29 21:12:00,
2013-01-29 15:22:00,39.0,38.0,-100.00,North,5,4.0,10.0,95,0.03,,,-99.99,,2013-01-29 21:22:00,
2013-01-29 15:33:00,39.0,38.0,-100.00,NNW,345,5.0,11.0,95,0.03,,,-99.99,,2013-01-29 21:33:00,
2013-01-29 15:42:00,39.0,37.0,-100.00,NW,315,10.0,16.0,95,0.01,,,-99.99,,2013-01-29 21:42:00,
2013-01-29 15:52:00,38.0,37.0,-100.00,NNW,335,6.0,14.0,95,0.00,,,-99.99,,2013-01-29 21:52:00,
2013-01-29 16:02:00,38.0,37.0,-100.00,NNW,335,6.0,14.0,95,0.00,,,-99.99,,2013-01-29 22:02:00,
2013-01-29 16:12:00,38.0,37.0,-100.00,NNW,340,10.0,18.0,95,0.00,,,-99.99,,2013-01-29 22:12:00,
2013-01-29 16:22:00,37.0,36.0,-100.00,NNW,340,11.0,16.0,95,0.00,,,-99.99,,2013-01-29 22:22:00,
2013-01-29 16:33:00,37.0,36.0,-100.00,NNW,330,7.0,16.0,95,0.00,,,-99.99,,2013-01-29 22:33:00,
2013-01-29 16:42:00,37.0,36.0,-100.00,NW,325,6.0,12.0,95,0.00,,,-99.99,,2013-01-29 22:42:00,
2013-01-29 16:52:00,37.0,36.0,-100.00,NW,310,9.0,12.0,95,0.00,,,-99.99,,2013-01-29 22:52:00,
2013-01-29 17:02:00,37.0,36.0,-100.00,NW,310,9.0,12.0,95,0.00,,,-99.99,,2013-01-29 23:02:00,
2013-01-29 17:12:00,37.0,36.0,-100.00,NW,315,10.0,13.0,95,0.03,,,-99.99,,2013-01-29 23:12:00,
2013-01-29 17:22:00,37.0,35.0,-100.00,NW,320,7.0,13.0,95,0.03,,,-99.99,,2013-01-29 23:22:00,
2013-01-29 17:32:00,36.0,35.0,-100.00,NW,320,7.0,12.0,95,0.03,,,-99.99,,2013-01-29 23:32:00,
2013-01-29 17:42:00,36.0,35.0,-100.00,North,0,11.0,14.0,95,0.00,,,-99.99,,2013-01-29 23:42:00,
2013-01-29 17:52:00,36.0,35.0,-100.00,NNW,330,5.0,11.0,95,0.00,,,-99.99,,2013-01-29 23:52:00,
2013-01-29 18:02:00,36.0,35.0,-100.00,NNW,330,5.0,11.0,95,0.00,,,-99.99,,2013-01-30 00:02:00,
2013-01-29 18:12:00,36.0,35.0,-100.00,NW,315,9.0,13.0,95,0.00,,,-99.99,,2013-01-30 00:12:00,
2013-01-29 18:22:00,36.0,35.0,-100.00,NW,320,8.0,14.0,95,0.00,,,-99.99,,2013-01-30 00:22:00,
2013-01-29 18:32:00,36.0,35.0,-100.00,NW,310,7.0,10.0,95,0.00,,,-99.99,,2013-01-30 00:32:00,
2013-01-29 18:42:00,36.0,35.0,-100.00,NW,315,5.0,11.0,95,0.00,,,-99.99,,2013-01-30 00:42:00,
2013-01-29 18:52:00,36.0,35.0,-100.00,NW,305,6.0,7.0,95,0.03,,,-99.99,,2013-01-30 00:52:00,
2013-01-29 19:02:00,36.0,35.0,-100.00,NW,305,6.0,7.0,95,0.03,,,-99.99,,2013-01-30 01:02:00,
2013-01-29 19:11:00,36.0,35.0,-100.00,NW,325,5.0,8.0,95,0.06,,,-99.99,,2013-01-30 01:11:00,
2013-01-29 19:22:00,36.0,35.0,-100.00,NW,310,7.0,11.0,95,0.03,,,-99.99,,2013-01-30 01:22:00,
2013-01-29 19:32:00,36.0,35.0,-100.00,NNW,330,7.0,11.0,95,0.01,,,-99.99,,2013-01-30 01:32:00,
2013-01-29 19:42:00,36.0,35.0,-100.00,NW,310,8.0,11.0,95,0.01,,,-99.99,,2013-01-30 01:42:00,
2013-01-29 19:52:00,36.0,35.0,-100.00,NNW,335,8.0,13.0,95,0.00,,,-99.99,,2013-01-30 01:52:00,
2013-01-29 20:02:00,36.0,35.0,-100.00,NNW,335,8.0,13.0,95,0.00,,,-99.99,,2013-01-30 02:02:00,
2013-01-29 20:12:00,35.0,34.0,-100.00,NW,310,12.0,15.0,95,0.00,,,-99.99,,2013-01-30 02:12:00,
2013-01-29 20:22:00,35.0,34.0,-100.00,NW,310,12.0,17.0,95,0.00,,,-99.99,,2013-01-30 02:22:00,
2013-01-29 20:33:00,35.0,34.0,-100.00,NW,315,9.0,15.0,95,0.00,,,-99.99,,2013-01-30 02:33:00,
2013-01-29 20:42:00,35.0,34.0,-100.00,NW,325,6.0,13.0,95,0.01,,,-99.99,,2013-01-30 02:42:00,
2013-01-29 20:52:00,35.0,34.0,-100.00,NNW,335,6.0,10.0,95,0.03,,,-99.99,,2013-01-30 02:52:00,
2013-01-29 21:03:00,35.0,34.0,-100.00,NNW,335,6.0,10.0,95,0.03,,,-99.99,,2013-01-30 03:03:00,
2013-01-29 21:11:00,35.0,34.0,-100.00,NNW,330,7.0,10.0,95,0.03,,,-99.99,,2013-01-30 03:11:00,
2013-01-29 21:22:00,35.0,34.0,-100.00,NW,310,6.0,10.0,95,0.03,,,-99.99,,2013-01-30 03:22:00,
2013-01-29 21:32:00,35.0,34.0,-100.00,NW,315,7.0,10.0,95,0.03,,,-99.99,,2013-01-30 03:32:00,
2013-01-29 21:42:00,35.0,34.0,-100.00,NW,310,9.0,13.0,95,0.04,,,-99.99,,2013-01-30 03:42:00,
2013-01-29 21:51:00,35.0,34.0,-100.00,NW,305,8.0,13.0,95,0.04,,,-99.99,,2013-01-30 03:51:00,
2013-01-29 22:02:00,35.0,34.0,-100.00,NW,305,8.0,13.0,95,0.04,,,-99.99,,2013-01-30 04:02:00,
2013-01-29 22:11:00,35.0,34.0,-100.00,NW,305,9.0,12.0,95,0.16,,,-99.99,,2013-01-30 04:11:00,
2013-01-29 22:22:00,35.0,34.0,-100.00,NW,315,10.0,13.0,95,0.06,,,-99.99,,2013-01-30 04:22:00,
2013-01-29 22:32:00,35.0,34.0,-100.00,NW,325,8.0,13.0,95,0.08,,,-99.99,,2013-01-30 04:32:00,
2013-01-29 22:41:00,35.0,33.0,-100.00,NW,315,10.0,17.0,95,0.03,,,-99.99,,2013-01-30 04:41:00,
2013-01-29 22:52:00,35.0,34.0,-100.00,NNW,340,7.0,13.0,95,0.04,,,-99.99,,2013-01-30 04:52:00,
2013-01-29 23:03:00,35.0,34.0,-100.00,NNW,340,7.0,13.0,95,0.04,,,-99.99,,2013-01-30 05:03:00,
2013-01-29 23:12:00,35.0,33.0,-100.00,NW,325,9.0,14.0,95,0.01,,,-99.99,,2013-01-30 05:12:00,
2013-01-29 23:22:00,34.0,33.0,-100.00,NNW,340,9.0,14.0,95,0.00,,,-99.99,,2013-01-30 05:22:00,
2013-01-29 23:32:00,34.0,33.0,-100.00,NNW,345,9.0,12.0,95,0.01,,,-99.99,,2013-01-30 05:32:00,
2013-01-29 23:42:00,35.0,33.0,-100.00,NNW,335,9.0,15.0,95,0.01,,,-99.99,,2013-01-30 05:42:00,
2013-01-29 23:52:00,35.0,33.0,-100.00,NNW,330,9.0,13.0,95,0.00,,,-99.99,,2013-01-30 05:52:00,